MONITOR-1 (RS32S SXC3-*)

Last updated on Wed Sep 13 2023 00:03:03 GMT+0000 (Coordinated Universal Time)

1 53374U 22096E 23255.51760770 .00046145 00000+0 10087-2 0 9998 2 53374 97.3995 162.8548 0003682 113.1141 247.0496 15.44025062 61133
UTC large
Height (km)
Speed (km/s)
/
Latitude / Longitude
Inclination (degrees)
Orbital Period (minutes)
Azimuth
Elevation
Range (km)
Doppler Factor

Next 0 passes for location: London (51.5072 / 0.1276)

Sorry there are no passes over London.